Location: Newark
(60.5925°N, 45.5911°E)
Time: 02:36:19
(UTC+00:00)

N. Korean satellite - Visible Passes

Search period start: 24 October 2019 00:00
Search period end: 03 November 2019 00:00
Orbit: 455 x 508 km, 97.2° (Epoch: 23 October)

Date Brightness Start Highest point End Pass type
(mag) Time Alt. Az. Time Alt. Az. Time Alt. Az.
24 Oct 10.5 01:31:06 10° ENE 01:31:46 10° E 01:32:26 10° E visible
24 Oct 7.3 03:02:20 10° NNE 03:05:56 61° ESE 03:09:33 10° S visible
24 Oct 10.3 15:23:31 10° WSW 15:24:52 12° W 15:26:13 10° WNW visible
25 Oct 8.4 02:37:07 10° NNE 02:40:31 36° E 02:43:56 10° SSE visible
25 Oct 9.7 14:56:42 10° SW 14:59:15 19° W 15:01:50 10° NW visible
26 Oct 9.4 02:12:04 10° NE 02:15:01 23° E 02:17:59 10° SE visible
26 Oct 8.8 14:30:35 10° SSW 14:33:42 30° W 14:36:53 10° NNW visible
27 Oct 10.1 01:47:19 10° NE 01:49:27 15° E 01:51:34 10° ESE visible
27 Oct 6.7 03:19:44 10° NNE 03:23:24 88° ESE 03:27:06 10° SSW visible
27 Oct 7.6 14:04:50 10° S 14:08:14 51° W 14:11:44 10° NNW visible
28 Oct 7.6 02:54:27 10° NNE 02:58:02 52° E 03:01:39 10° S visible
28 Oct 10.1 15:14:58 10° WSW 15:16:51 14° W 15:18:46 10° NW visible
29 Oct 8.7 02:29:16 10° NNE 02:32:35 32° E 02:35:56 10° SSE visible
29 Oct 9.4 14:48:27 10° SW 14:51:15 22° W 14:54:06 10° NW visible
30 Oct 9.6 02:04:16 10° NE 02:07:03 20° E 02:09:52 10° SE visible
30 Oct 8.4 14:22:28 10° SSW 14:25:43 35° W 14:29:03 10° NNW visible
31 Oct 10.2 01:39:41 10° NE 01:41:27 13° E 01:43:12 10° ESE visible
31 Oct 6.9 03:11:49 10° NNE 03:15:30 76° ESE 03:19:12 10° S visible
31 Oct 7.2 13:56:48 10° S 14:00:16 60° WSW 14:03:52 10° NNW visible
01 Nov 7.9 02:46:31 10° NNE 02:50:06 45° E 02:53:41 10° S visible
01 Nov 9.9 15:06:32 10° SW 15:08:49 16° W 15:11:09 10° NW visible
02 Nov 9.0 02:21:23 10° NNE 02:24:37 28° E 02:27:51 10° SSE visible
02 Nov 9.1 14:40:13 10° SSW 14:43:14 25° W 14:46:18 10° NW visible
